Montpelier, VT

6:33 PM EST on February 05, 2016 (GMT -0500)
Knapp State

Weather History for KMPV - November, 2010

Change the Weather History Date:

Friday, November 19, 2010

  Actual Average Record
Temperature  
Mean Temperature 26 °F 34 °F  
Max Temperature 32 °F 42 °F 68 °F (1953)
Min Temperature 21 °F 26 °F 5 °F (1956)
Degree Days  
Heating Degree Days 38 31  
Month to date heating degree days 523  
Since 1 July heating degree days 1479  
Cooling Degree Days 0 0  
Month to date cooling degree days 0  
Year to date cooling degree days 264  
Moisture  
Dew Point 23 °F    
Average Humidity 78    
Maximum Humidity 93    
Minimum Humidity 56    
Precipitation  
Precipitation 0.03 in 0.11 in 0.82 in (1948)
Month to date precipitation 2.03  
Year to date precipitation 33.39  
Sea Level Pressure  
Sea Level Pressure 30.15 in    
Wind  
Wind Speed 6 mph (NW)    
Max Wind Speed 15 mph    
Max Gust Speed 21 mph    
Visibility 8 miles    
Events Snow    
T = Trace of Precipitation, MM = Missing Value Source: NWS Daily Summary

Daily Weather History Graph

Daily Weather History Graph

Search for Another Location

Airport or City:

Trip Planner

Search our weather history database for the weather conditions in past years. The results will help you decide how hot, cold, wet, or windy it might be!

Date:

Astronomy

Nov. 19, 2010 Rise Set
Actual Time 6:50 AM EST 4:19 PM EST
Civil Twilight 6:19 AM EST 4:51 PM EST
Nautical Twilight 5:43 AM EST 5:26 PM EST
Astronomical Twilight 5:09 AM EST 6:01 PM EST
Moon 2:50 PM EST (11/19) 4:43 AM EST (11/19)
Length of Visible Light 10h 32m
Length of Day
9h 29m
Waxing Gibbous, 96% of the Moon is Illuminated
Nov 19
Waxing Gibbous
Nov 21
Full
Nov 28
Last Quarter
Dec 5
New
Dec 13
First Quarter

Hourly Weather History & Observations

Time (EST) Temp. Windchill Dew Point Humidity Pressure Visibility Wind Dir Wind Speed Gust Speed Precip Events Conditions
12:51 AM 32.0 °F 28.7 °F 27.0 °F 82% 30.07 in 10.0 mi WSW 3.5 mph - N/A   Mostly Cloudy
1:33 AM 32.0 °F 28.7 °F 26.6 °F 80% 30.03 in 8.0 mi North 3.5 mph - 0.00 in Snow Light Snow
1:41 AM 32.0 °F 28.7 °F 26.6 °F 80% 30.04 in 9.0 mi NW 3.5 mph - 0.00 in   Overcast
1:51 AM 32.0 °F 28.7 °F 27.0 °F 82% 30.08 in 10.0 mi NNW 3.5 mph - 0.00 in   Overcast
2:05 AM 32.0 °F 25.6 °F 26.6 °F 80% 30.05 in 2.5 mi WNW 6.9 mph - 0.01 in Snow Light Snow
2:10 AM 30.2 °F 24.3 °F 26.6 °F 86% 30.05 in 1.2 mi WNW 5.8 mph - 0.01 in Snow Light Snow
2:19 AM 30.2 °F 24.3 °F 28.4 °F 93% 30.06 in 2.0 mi NW 5.8 mph - 0.01 in Snow Light Snow
2:27 AM 30.2 °F 22.6 °F 28.4 °F 93% 30.06 in 3.0 mi NW 8.1 mph - 0.01 in Snow Light Snow
2:33 AM 30.2 °F 20.2 °F 28.4 °F 93% 30.06 in 1.8 mi NW 12.7 mph - 0.02 in Snow Light Snow
2:42 AM 30.2 °F 19.8 °F 26.6 °F 86% 30.07 in 1.0 mi NW 13.8 mph - 0.02 in Snow Light Snow
2:51 AM 30.0 °F 21.1 °F 27.0 °F 88% 30.11 in 1.0 mi WNW 10.4 mph - 0.03 in Snow Light Snow
2:54 AM 30.2 °F 22.6 °F 26.6 °F 86% 30.06 in 1.8 mi WNW 8.1 mph - 0.00 in Snow Light Snow
2:56 AM 30.2 °F 21.9 °F 26.6 °F 86% 30.06 in 4.0 mi WNW 9.2 mph - 0.00 in Snow Light Snow
3:04 AM 30.2 °F 23.4 °F 26.6 °F 86% 30.06 in 9.0 mi WNW 6.9 mph - 0.00 in   Mostly Cloudy
3:51 AM 30.9 °F 25.2 °F 27.0 °F 85% 30.11 in 10.0 mi NW 5.8 mph - 0.00 in   Overcast
4:51 AM 30.0 °F 21.1 °F 25.0 °F 82% 30.14 in 10.0 mi NW 10.4 mph - 0.00 in   Overcast
5:51 AM 28.9 °F 22.8 °F 24.1 °F 82% 30.15 in 10.0 mi WNW 5.8 mph - N/A   Mostly Cloudy
5:58 AM 28.4 °F 20.4 °F 24.8 °F 86% 30.11 in 10.0 mi WNW 8.1 mph - N/A   Mostly Cloudy
6:51 AM 28.9 °F 19.2 °F 24.1 °F 82% 30.18 in 7.0 mi WNW 11.5 mph - 0.00 in Snow Light Snow
7:51 AM 28.9 °F 20.4 °F 23.0 °F 78% 30.21 in 10.0 mi NW 9.2 mph - 0.00 in   Mostly Cloudy
8:51 AM 30.0 °F 20.5 °F 21.0 °F 69% 30.22 in 10.0 mi NNW 11.5 mph 18.4 mph N/A   Overcast
9:44 AM 30.2 °F 24.3 °F 21.2 °F 69% 30.18 in 5.0 mi NNW 5.8 mph - 0.00 in Snow Light Snow
9:51 AM 30.9 °F 22.8 °F 23.0 °F 72% 30.23 in 5.0 mi NNW 9.2 mph - 0.00 in Snow Light Snow
10:51 AM 30.9 °F 20.2 °F 19.9 °F 64% 30.22 in 10.0 mi WNW 15.0 mph 20.7 mph 0.00 in   Mostly Cloudy
11:51 AM 30.9 °F 22.8 °F 21.0 °F 67% 30.24 in 10.0 mi NW 9.2 mph - N/A   Mostly Cloudy
12:51 PM 30.9 °F 22.8 °F 19.0 °F 61% 30.24 in 10.0 mi NW 9.2 mph - N/A   Overcast
1:51 PM 32.0 °F 24.2 °F 18.0 °F 56% 30.24 in 10.0 mi NW 9.2 mph - N/A   Overcast
2:51 PM 30.9 °F 25.2 °F 18.0 °F 59% 30.24 in 10.0 mi NNW 5.8 mph - N/A   Clear
3:51 PM 30.0 °F 24.1 °F 17.1 °F 59% 30.23 in 10.0 mi NW 5.8 mph - N/A   Clear
4:51 PM 25.0 °F - 18.0 °F 75% 30.25 in 10.0 mi Calm Calm - N/A   Clear
5:51 PM 23.0 °F - 17.1 °F 78% 30.25 in 10.0 mi Calm Calm - N/A   Clear
6:51 PM 23.0 °F - 17.1 °F 78% 30.23 in 10.0 mi Calm Calm - N/A   Clear
7:51 PM 21.9 °F - 17.1 °F 82% 30.23 in 10.0 mi Calm Calm - N/A   Clear
8:51 PM 21.9 °F - 17.1 °F 82% 30.21 in 10.0 mi Calm Calm - N/A   Clear
9:51 PM 23.0 °F - 18.0 °F 81% 30.18 in 10.0 mi Calm Calm - N/A   Scattered Clouds
10:51 PM 23.0 °F - 18.0 °F 81% 30.16 in 10.0 mi Calm Calm - N/A   Overcast
11:51 PM 26.1 °F 17.6 °F 18.0 °F 71% 30.14 in 10.0 mi South 8.1 mph - N/A   Overcast